Starlink 6320

operational
NORAD ID: 57336 Int'l Des: 2023-099 Owner: SPXS Country: US Constellation: starlink
LEOCIRCULAR

About Starlink 6320

Description loading...

Live Position

Loading 3D Globe...

Upcoming Passes

Altitude History

Altitude vs Time

uPlot chart will show altitude changes over time

Two-Line Element Set

1 57336U 23099J 26036.46634954 .00002448 00000-0 19620-3 0 9994
2 57336 43.0033 63.6789 0001220 267.2671 92.8031 15.02542222141277
Epoch: Feb 5, 2026 • Age: 13 hours

Current Status

Altitude 558.5 km
Velocity 7.59 km/s
Sub-Earth Point 16.06°N, 76.86°E
Launch Date Jul 16, 2023
Age 2.5 years
Type internet

Technical Details

Classification Payload
Mass 305.00 kg
Dry Mass 290.00 kg
Total Mass 305.00 kg
Length 0.20 m
Diameter 2.80 m
Span 9.00 m
Shape Box + pan
Manufacturer SPXS
Bus Type Starlink
Phase Status In Orbit
Owner/State SPXS/US

Large Constellations

Loading constellations...